Zurück zum Katalog

DELTA 1 DEB

AktivPO
NORAD 21545·DEBRIS·🇺🇸 United States

Gestartet Jun 12, 1975 von Vandenberg Space Force Base

Loading…

Nächste Überflüge (nächste 24 Stunden)

TLE

AktuellSource: Space-Track

Epoche: Sep 14, 2026, 07:15 UTC

1 21545U 75052GZ  26257.30229128  .00000146  00000-0  39088-3 0  9997
2 21545  99.7018  30.7981 0230384 224.3993 164.0424 13.22318055704667

Verfolge DELTA 1 DEB in Echtzeit mit AllMySat

Download on the App Store